Probability
0 0 0 0 0 0 0 0 0 0 0 0 0 0 0 0 0 0 0 0 0 32 97 100 100 100 100 90 84 74 71 87 97 100 100 100 100 100 100 100 100 100 100 100 100 100 100 100 100
0 0 0 0 0 0 0 3 0 0 0 0 0 0 0 0 3 0 0 0 0 26 77 100 100 100 97 94 81 77 71 87 100 100 100 100 100 100 100 97 97 97 100 100 100 100 100 100 100
0 0 0 0 0 0 0 0 0 0 0 0 0 0 0 0 13 3 0 0 0 0 10 100 100 100 97 94 94 81 77 84 100 100 100 100 97 97 94 94 84 84 77 90 100 100 100 97 100
0 0 0 0 0 0 0 0 0 0 0 0 0 0 0 0 16 13 0 0 0 0 23 100 100 100 100 97 97 94 84 87 100 100 100 100 100 100 97 97 97 97 87 77 94 100 100 100 100
0 0 0 0 0 0 0 0 0 0 0 0 0 0 0 0 23 0 0 0 0 6 81 100 100 100 100 100 97 94 87 90 100 100 100 100 100 100 100 100 100 100 97 90 84 87 97 100 100
0 0 0 0 0 0 0 0 0 0 0 0 0 0 0 0 13 3 0 0 0 10 97 100 100 100 100 100 97 97 97 97 97 100 100 100 100 100 100 100 100 100 97 71 65 77 100 100 100
0 0 0 0 0 0 0 0 0 0 0 0 0 0 0 0 0 13 6 0 0 6 94 100 100 100 100 100 100 100 100 100 100 100 100 100 100 100 100 100 100 97 97 87 77 58 65 94 100
0 0 0 0 0 0 0 0 0 0 0 0 0 0 0 0 0 35 61 10 3 13 94 100 100 97 100 100 100 100 100 100 100 100 100 100 97 100 100 100 100 97 97 97 100 100 94 100 100
0 0 0 0 0 0 0 0 0 0 6 19 0 0 0 0 6 68 97 90 65 68 87 94 90 87 97 97 100 100 100 100 100 100 100 100 90 45 100 100 94 97 100 100 100 100 100 100 100
0 0 0 0 0 0 0 0 0 13 16 0 0 0 0 0 19 65 97 94 94 84 74 61 68 58 71 90 100 100 100 100 100 84 94 97 10 3 35 42 100 100 100 100 100 100 100 100 77
0 0 0 0 0 0 0 0 0 19 6 0 0 0 0 0 6 48 94 94 94 71 71 61 39 26 35 23 84 87 74 52 45 23 16 10 6 0 10 3 32 100 100 100 100 100 100 81 32
0 0 0 0 0 0 0 0 0 16 13 0 0 0 0 0 0 19 48 87 94 90 100 84 42 16 3 3 19 26 32 19 26 16 3 0 0 0 0 0 0 6 13 3 0 0 6 3 3
0 0 0 0 0 0 0 0 10 26 16 3 0 0 0 0 0 0 3 45 74 87 97 100 94 65 32 10 3 6 13 16 10 3 13 6 0 0 0 0 0 0 0 0 0 0 0 0 0
0 0 0 0 0 0 0 0 19 45 13 0 0 0 0 0 0 0 0 13 13 19 84 100 100 90 71 71 19 10 3 29 13 3 6 10 0 0 0 0 0 0 0 0 0 0 0 0 0
0 0 0 0 0 0 0 0 6 58 29 6 0 0 0 0 0 3 0 0 0 3 58 94 97 71 61 71 52 10 6 0 0 0 0 0 0 0 0 0 0 0 0 0 0 0 0 0 0
0 0 0 0 0 0 0 0 3 61 58 19 10 6 10 10 10 3 6 0 3 13 74 84 100 71 71 61 61 26 10 6 6 6 6 6 0 0 0 0 0 0 0 0 0 0 0 0 0
0 0 0 0 0 0 0 0 3 45 71 58 39 23 29 16 23 26 42 23 3 16 71 77 90 94 84 87 81 68 65 74 71 52 39 48 52 16 6 10 6 3 0 0 0 0 0 0 0
0 0 0 0 0 0 0 0 0 42 68 77 77 55 45 29 35 29 39 45 48 32 61 68 52 87 97 100 100 81 84 81 87 77 84 71 55 45 3 0 3 3 3 3 0 0 0 0 0
0 0 0 0 0 0 0 0 3 26 74 84 74 71 58 35 45 35 39 58 81 74 74 74 84 87 94 100 97 94 77 74 74 68 74 65 48 35 3 3 0 0 0 0 0 0 0 0 0
0 0 0 0 0 0 0 0 3 23 58 77 74 71 52 42 45 45 55 71 81 90 87 81 84 90 90 94 84 81 84 74 55 26 13 10 10 3 0 0 0 0 0 0 0 0 0 0 0
0 0 0 0 0 0 0 0 0 13 23 45 55 58 45 45 52 65 58 71 74 68 68 61 48 39 29 35 35 29 23 13 3 3 3 3 0 0 0 0 0 0 0 0 0 0 0 0 0
0 0 0 0 0 0 0 0 0 3 32 42 58 61 52 68 74 52 32 29 35 26 26 16 10 6 10 6 3 6 3 3 3 3 0 0 0 0 0 0 0 0 0 0 0 0 0 0 0
0 0 0 0 0 0 0 0 0 0 16 48 45 45 42 42 19 10 6 10 13 6 3 0 0 0 0 0 0 0 3 3 0 0 0 0 0 0 0 0 0 0 0 0 0 0 0 0 0
0 0 0 0 0 0 0 0 0 0 23 32 39 16 10 0 0 0 0 0 0 0 0 0 0 0 0 0 0 0 0 0 0 0 0 0 0 0 0 0 0 0 0 0 0 0 0 0 0
0 0 0 0 0 0 0 0 0 6 42 45 26 3 0 0 0 0 0 0 0 0 0 0 0 0 0 0 0 0 0 0 0 0 0 0 0 0 0 0 0 0 0 0 0 0 0 0 0
0 0 0 0 0 0 0 0 0 10 13 10 6 0 0 0 0 0 0 0 0 0 0 0 0 0 0 0 0 0 0 0 0 0 0 0 0 0 0 0 0 0 0 0 0 0 0 0 0
0 0 0 0 0 0 0 0 0 3 6 0 0 0 0 0 0 0 0 0 0 0 0 0 0 0 0 0 0 0 0 0 0 0 0 0 0 0 0 0 0 0 0 0 0 0 0 0 0
0 0 0 0 0 0 0 0 0 0 0 0 0 0 0 0 0 0 0 0 0 0 0 0 0 0 0 0 0 0 0 0 0 0 0 0 0 0 0 0 0 0 0 0 0 0 0 0 0
0 0 0 0 0 0 0 0 0 0 0 0 0 0 0 0 0 0 0 0 0 0 0 0 0 0 0 0 0 0 0 0 0 0 0 0 0 0 0 0 0 0 0 0 0 0 0 0 0
0 0 0 0 0 0 0 0 0 0 0 0 0 0 0 0 0 0 0 0 0 0 0 0 0 0 0 0 0 0 0 0 0 0 0 0 0 0 0 0 0 0 0 0 0 0 0 0 0
Height
5924 5924 5924 5925 5927 5927 5925 5924 5925 5928 5930 5930 5929 5929 5929 5929 5929 5931 5929 5928 5928 5928 5928 5929 5929 5930 5930 5930 5931 5931 5931 5931 5930 5929 5929 5928 5928 5927 5926 5925 5923 5921 5919 5918 5917 5916 5915 5913 5912
5924 5924 5925 5925 5925 5926 5924 5923 5925 5929 5931 5930 5930 5931 5931 5930 5930 5931 5930 5931 5930 5930 5930 5930 5931 5931 5932 5932 5932 5932 5932 5932 5931 5931 5930 5929 5929 5928 5927 5926 5924 5922 5921 5919 5917 5916 5915 5914 5913
5923 5924 5925 5925 5924 5924 5925 5925 5926 5928 5930 5931 5932 5932 5933 5932 5932 5932 5932 5932 5932 5932 5932 5931 5932 5932 5933 5933 5934 5934 5933 5933 5932 5932 5931 5930 5929 5929 5928 5927 5926 5924 5922 5920 5918 5917 5915 5914 5913
5923 5924 5925 5925 5924 5924 5924 5925 5925 5928 5930 5931 5931 5932 5933 5933 5932 5932 5932 5932 5932 5932 5933 5933 5933 5933 5934 5935 5935 5935 5934 5934 5933 5932 5932 5931 5930 5929 5928 5927 5926 5925 5923 5921 5919 5917 5916 5914 5913
5923 5923 5924 5924 5924 5923 5924 5925 5926 5927 5929 5930 5930 5931 5933 5933 5932 5932 5932 5932 5932 5933 5933 5933 5934 5934 5935 5935 5935 5935 5935 5934 5934 5933 5932 5931 5930 5930 5928 5927 5927 5925 5923 5921 5919 5917 5915 5913 5912
5923 5923 5924 5924 5924 5923 5923 5924 5925 5927 5928 5929 5930 5930 5932 5933 5931 5931 5932 5932 5932 5933 5933 5933 5934 5935 5935 5935 5935 5935 5934 5934 5933 5932 5931 5930 5929 5929 5928 5926 5925 5924 5922 5921 5919 5917 5915 5913 5911
5923 5923 5923 5925 5923 5922 5922 5923 5923 5925 5927 5928 5929 5929 5930 5933 5932 5930 5931 5932 5932 5932 5933 5933 5934 5934 5934 5934 5934 5934 5933 5933 5932 5931 5930 5929 5927 5927 5926 5924 5923 5922 5920 5919 5917 5916 5914 5913 5911
5921 5924 5923 5923 5921 5919 5920 5921 5921 5921 5925 5927 5927 5927 5927 5930 5932 5930 5929 5931 5931 5931 5932 5932 5932 5933 5933 5932 5932 5932 5931 5931 5930 5929 5929 5927 5926 5924 5923 5922 5920 5919 5918 5916 5914 5913 5912 5911 5910
5920 5923 5921 5920 5919 5918 5917 5919 5919 5918 5922 5925 5925 5925 5926 5927 5930 5930 5928 5930 5930 5930 5930 5931 5931 5931 5931 5930 5930 5930 5929 5928 5928 5927 5926 5925 5924 5922 5921 5919 5918 5916 5915 5914 5912 5910 5909 5908 5908
5917 5920 5919 5918 5917 5918 5917 5917 5917 5917 5918 5921 5923 5923 5923 5924 5927 5928 5927 5927 5928 5928 5929 5929 5929 5929 5929 5928 5928 5927 5926 5926 5925 5924 5923 5922 5921 5920 5918 5917 5915 5914 5912 5911 5909 5907 5906 5905 5905
5915 5917 5915 5914 5914 5915 5915 5916 5915 5915 5917 5918 5919 5920 5920 5921 5924 5926 5925 5925 5926 5927 5927 5927 5927 5926 5926 5926 5925 5924 5923 5922 5921 5921 5920 5919 5918 5916 5915 5914 5912 5910 5909 5908 5906 5904 5902 5901 5901
5910 5912 5911 5911 5911 5912 5913 5913 5912 5912 5915 5916 5917 5918 5919 5919 5921 5923 5924 5923 5923 5924 5925 5925 5924 5924 5923 5922 5921 5920 5919 5919 5918 5917 5917 5916 5915 5913 5911 5910 5909 5907 5906 5904 5903 5901 5899 5898 5897
5904 5907 5907 5906 5907 5909 5910 5909 5909 5909 5911 5912 5914 5916 5918 5917 5917 5919 5920 5921 5921 5921 5921 5921 5921 5920 5919 5918 5917 5916 5915 5914 5914 5913 5912 5912 5911 5910 5909 5907 5905 5904 5902 5901 5899 5897 5895 5894 5893
5898 5900 5901 5901 5902 5904 5906 5907 5905 5906 5907 5908 5910 5912 5913 5914 5915 5915 5915 5917 5918 5918 5918 5918 5918 5917 5916 5914 5913 5912 5911 5910 5910 5910 5909 5908 5908 5907 5905 5904 5902 5900 5898 5896 5894 5892 5890 5889 5888
5891 5895 5897 5898 5898 5899 5901 5903 5902 5902 5903 5904 5905 5907 5909 5909 5909 5910 5910 5910 5912 5913 5913 5913 5913 5912 5911 5909 5908 5907 5906 5906 5905 5905 5904 5903 5902 5901 5900 5898 5897 5896 5894 5891 5889 5887 5885 5883 5882
5885 5889 5893 5896 5896 5896 5896 5898 5898 5895 5897 5898 5899 5901 5903 5903 5903 5903 5903 5904 5905 5906 5907 5907 5906 5906 5905 5903 5902 5900 5899 5898 5897 5897 5897 5896 5895 5894 5893 5891 5890 5889 5888 5886 5884 5881 5880 5878 5876
5879 5883 5885 5888 5888 5888 5888 5889 5892 5888 5889 5891 5893 5894 5895 5895 5896 5896 5896 5896 5897 5898 5899 5899 5899 5898 5897 5896 5895 5894 5893 5892 5891 5890 5889 5889 5888 5887 5886 5885 5883 5882 5881 5879 5877 5875 5873 5872 5870
5873 5875 5876 5878 5879 5879 5879 5880 5883 5882 5881 5883 5884 5885 5886 5886 5887 5886 5887 5888 5889 5891 5891 5891 5891 5890 5889 5889 5888 5887 5886 5885 5885 5884 5883 5882 5882 5881 5880 5878 5876 5875 5874 5872 5870 5868 5866 5865 5864
5866 5867 5869 5871 5872 5872 5871 5872 5874 5875 5874 5875 5877 5877 5878 5878 5880 5880 5881 5881 5883 5884 5882 5883 5882 5881 5880 5880 5880 5879 5879 5878 5877 5876 5875 5875 5874 5874 5872 5871 5869 5867 5866 5864 5862 5861 5859 5858 5856
5863 5863 5864 5866 5867 5868 5868 5868 5869 5869 5870 5870 5869 5869 5869 5870 5871 5874 5876 5877 5876 5874 5871 5871 5870 5870 5870 5870 5871 5871 5870 5870 5869 5868 5867 5867 5866 5865 5864 5863 5861 5858 5857 5856 5854 5852 5851 5850 5848
5858 5859 5859 5860 5862 5862 5863 5865 5865 5865 5865 5865 5864 5863 5862 5862 5863 5864 5865 5866 5865 5863 5862 5861 5860 5860 5861 5862 5862 5862 5861 5861 5860 5860 5859 5859 5858 5857 5855 5854 5852 5849 5847 5845 5843 5842 5842 5841 5840
5852 5853 5853 5854 5857 5859 5859 5860 5862 5860 5860 5859 5858 5857 5855 5854 5854 5855 5854 5855 5855 5854 5854 5852 5850 5851 5852 5852 5853 5853 5852 5852 5851 5851 5851 5850 5849 5847 5846 5844 5842 5840 5837 5835 5833 5831 5831 5830 5830
5846 5846 5846 5847 5850 5853 5854 5853 5856 5857 5856 5854 5852 5849 5848 5846 5846 5845 5844 5844 5844 5844 5844 5843 5842 5842 5842 5843 5843 5843 5843 5843 5843 5842 5842 5841 5839 5838 5836 5834 5832 5829 5827 5825 5822 5821 5820 5820 5820
5839 5839 5840 5840 5842 5843 5847 5846 5846 5850 5849 5848 5844 5841 5838 5837 5836 5835 5833 5832 5832 5832 5832 5832 5832 5833 5833 5834 5834 5834 5834 5834 5833 5833 5833 5832 5830 5828 5826 5824 5821 5819 5816 5814 5812 5810 5809 5809 5810
5834 5834 5834 5834 5834 5834 5836 5835 5835 5836 5836 5835 5833 5830 5827 5825 5825 5823 5821 5819 5817 5819 5820 5822 5823 5823 5824 5824 5824 5824 5824 5824 5824 5824 5823 5822 5821 5819 5816 5813 5811 5808 5806 5804 5802 5800 5799 5799 5799
5831 5830 5830 5828 5827 5828 5828 5826 5826 5823 5822 5822 5820 5818 5816 5814 5813 5811 5810 5808 5807 5806 5807 5810 5813 5814 5814 5814 5814 5814 5814 5814 5814 5813 5812 5811 5810 5808 5806 5803 5800 5798 5796 5794 5793 5791 5790 5789 5789
5826 5825 5824 5822 5820 5818 5819 5818 5816 5813 5811 5810 5808 5806 5803 5801 5799 5798 5797 5796 5796 5795 5795 5798 5801 5803 5804 5804 5804 5804 5803 5803 5803 5802 5801 5800 5799 5797 5795 5793 5791 5789 5788 5786 5785 5783 5781 5780 5780
5822 5821 5819 5817 5813 5810 5809 5808 5808 5804 5800 5796 5794 5792 5790 5788 5786 5785 5784 5784 5783 5783 5784 5786 5788 5791 5793 5794 5793 5793 5792 5792 5792 5792 5791 5790 5788 5787 5786 5784 5783 5782 5781 5779 5777 5775 5774 5772 5771
5818 5817 5814 5811 5809 5804 5799 5800 5797 5792 5788 5784 5781 5778 5776 5774 5772 5772 5772 5772 5772 5772 5774 5776 5778 5780 5782 5783 5783 5782 5782 5782 5781 5781 5780 5779 5779 5778 5777 5776 5775 5775 5774 5773 5771 5769 5767 5765 5764
5813 5811 5809 5806 5802 5798 5791 5790 5783 5778 5773 5769 5765 5762 5760 5760 5760 5761 5761 5761 5762 5764 5765 5767 5769 5771 5772 5773 5773 5773 5773 5773 5772 5772 5771 5770 5770 5769 5769 5768 5768 5768 5767 5767 5765 5764 5762 5760 5758
Wind_Speed
15 15 12 10 8 7 6 4 6 6 6 6 6 9 10 10 11 14 13 12 13 14 14 13 13 12 12 12 11 10 10 10 10 11 11 11 11 11 12 13 14 15 16 16 16 15 14 13 12
14 13 10 8 6 9 4 4 4 7 7 5 3 5 7 8 9 11 10 10 10 11 11 12 11 10 11 11 11 10 10 9 9 9 9 9 8 8 9 11 12 13 14 15 15 15 14 13 12
13 13 11 8 5 6 1 5 3 3 5 7 5 4 5 4 5 7 7 7 8 8 8 9 9 9 9 10 10 10 10 9 8 8 7 7 7 8 8 9 11 13 14 14 15 14 13 12 12
14 14 12 8 7 3 2 4 4 4 0 6 8 7 5 4 3 3 3 4 5 6 5 5 6 6 7 8 8 8 7 7 6 6 7 7 7 9 9 10 12 14 15 15 15 15 14 12 12
13 15 15 11 10 3 1 3 4 4 2 5 9 9 7 7 7 6 4 2 1 1 2 2 2 3 4 5 6 6 6 7 6 7 7 8 9 10 11 13 14 16 17 17 16 15 15 13 11
10 12 14 12 11 6 1 5 6 5 4 5 8 10 9 9 10 9 8 7 6 4 3 3 2 3 3 3 4 4 5 6 7 7 8 9 10 11 12 13 14 16 17 18 17 17 16 14 11
9 9 12 11 11 8 4 7 10 8 5 5 8 10 11 10 10 11 11 9 9 8 8 8 7 6 6 5 5 5 4 5 6 7 8 9 9 10 11 12 14 15 16 17 18 17 16 15 13
10 9 12 14 14 10 5 8 14 14 9 7 7 10 12 11 10 10 11 9 9 10 10 10 10 10 8 7 6 6 5 4 5 8 9 10 10 10 11 12 13 14 15 16 17 17 16 15 14
13 12 15 17 18 16 10 10 17 20 16 12 11 12 13 13 11 9 12 10 10 11 11 11 12 11 10 8 8 9 9 8 9 11 13 13 12 11 12 13 13 14 15 16 17 17 16 15 15
16 16 18 20 21 19 16 14 18 20 18 15 14 15 15 15 13 11 12 12 11 11 11 11 11 11 12 12 12 13 14 15 16 17 17 15 13 13 13 15 16 17 17 17 17 17 16 15 16
20 19 24 25 25 23 20 17 21 22 19 17 17 18 18 16 14 13 12 13 13 12 11 12 12 13 15 16 17 18 18 19 19 18 16 14 14 14 16 18 19 20 20 19 19 19 17 16 16
25 24 27 29 29 27 24 22 25 26 23 21 19 19 19 18 15 13 12 12 12 12 12 13 14 14 15 16 17 17 18 18 18 17 14 13 13 15 18 20 21 22 22 21 20 21 21 18 18
27 26 28 31 32 30 27 26 28 28 26 25 23 22 22 21 18 16 15 13 13 13 13 14 15 15 16 17 16 16 17 17 17 17 17 16 16 17 19 22 24 26 26 24 23 22 23 22 21
31 30 30 32 33 31 30 29 31 30 30 30 29 27 25 24 23 21 20 19 18 17 18 17 17 17 18 19 19 19 19 18 18 17 18 18 19 19 21 23 26 28 29 28 26 24 24 24 24
35 35 34 34 33 32 32 31 32 33 32 32 32 30 26 25 25 26 25 25 24 22 22 22 21 21 21 22 22 23 24 24 22 21 20 21 22 23 24 26 28 30 31 30 29 26 25 25 25
34 35 34 33 33 32 34 34 32 34 34 33 33 32 30 30 30 31 30 29 28 26 26 26 25 25 25 25 26 26 27 28 28 28 26 26 27 28 29 30 32 34 35 34 32 30 27 26 25
30 29 28 26 24 23 28 30 28 35 36 36 36 36 36 35 34 34 32 31 32 30 28 29 29 29 29 29 29 29 29 30 32 33 32 33 33 33 34 35 36 38 37 36 34 33 30 28 26
22 23 25 26 21 21 25 29 25 30 35 36 38 38 39 39 37 34 32 31 32 31 30 32 33 33 33 32 32 32 33 34 35 36 37 37 36 36 38 40 40 41 39 37 35 34 32 30 29
24 25 27 26 22 25 28 31 27 26 33 36 38 40 41 41 40 36 32 29 32 34 35 37 38 37 36 34 34 35 36 37 38 40 40 40 40 41 42 43 44 44 41 39 37 36 34 32 31
25 26 27 26 23 24 26 27 27 26 33 38 40 42 43 42 42 41 39 41 40 40 38 37 39 38 37 35 35 37 39 40 41 42 42 42 42 43 44 45 46 46 45 42 41 39 37 35 33
29 29 29 29 27 28 29 28 26 27 34 39 42 44 46 47 47 46 43 39 40 39 39 39 42 40 38 37 38 39 41 42 42 42 42 42 43 44 45 45 45 45 47 46 45 43 41 38 35
32 32 33 33 30 32 33 34 32 33 37 41 45 48 51 51 51 47 42 39 38 39 41 40 39 39 40 40 40 41 42 42 42 42 41 41 42 43 44 44 44 45 46 47 47 45 43 40 37
32 34 36 36 35 34 37 41 40 40 42 45 49 52 53 53 50 46 42 39 39 40 40 40 40 40 41 41 41 43 42 42 41 40 40 40 41 43 43 44 45 45 46 46 46 45 43 40 37
27 29 31 33 33 35 35 41 45 44 47 49 52 54 54 54 51 48 45 44 43 42 41 41 39 38 39 39 39 40 40 39 39 39 39 41 42 43 44 45 46 46 45 45 44 43 42 39 38
17 19 20 22 25 28 28 35 40 42 46 49 51 53 54 54 53 52 50 47 45 44 42 39 36 36 36 38 39 39 39 39 39 40 41 43 44 45 46 47 47 45 44 42 41 40 38 37 36
17 19 21 23 24 23 25 30 32 36 39 42 45 49 52 53 54 56 55 53 50 46 44 41 39 39 40 41 41 41 42 42 43 44 45 46 47 48 48 47 45 43 41 38 36 35 34 33 34
17 18 21 24 26 27 26 27 32 35 39 41 43 46 49 51 53 55 57 55 53 49 45 43 42 43 44 44 45 46 47 47 47 47 49 49 49 48 46 44 41 39 36 33 32 31 30 31 32
12 12 16 19 25 27 28 28 29 34 38 42 45 47 50 52 53 53 53 51 48 47 46 44 44 44 44 44 45 47 48 48 48 49 49 48 45 42 40 38 36 34 32 30 29 28 28 28 29
13 15 18 21 25 31 36 34 34 37 40 44 46 48 47 47 46 47 47 44 40 38 38 35 37 39 39 37 37 37 39 41 42 43 42 41 39 37 36 35 34 32 30 28 26 25 23 23 25
17 19 22 26 29 33 39 40 36 37 40 44 47 48 48 47 43 42 39 37 35 32 30 28 27 29 31 32 32 33 34 36 37 37 37 37 37 36 35 34 33 32 30 28 25 22 21 20 19
Wind_Direction
145 140 136 131 128 149 151 136 97 81 81 80 76 80 91 94 92 93 96 95 94 93 91 87 84 83 81 75 66 57 52 53 54 52 50 46 45 43 37 29 23 20 18 15 14 19 24 26 28
158 154 155 143 158 187 162 96 93 108 125 133 130 108 106 107 101 100 101 101 98 95 94 91 87 83 80 76 69 60 55 52 50 49 52 48 43 38 31 24 18 14 12 11 10 8 11 15 16
174 172 174 166 210 217 337 17 14 86 134 166 182 165 138 132 116 111 112 104 94 91 92 92 90 84 78 75 71 64 58 55 51 48 49 41 26 15 8 4 2 360 358 359 1 2 2 3 4
189 192 195 196 226 231 28 9 335 5 34 197 201 205 183 196 200 159 138 115 101 96 94 87 84 81 75 70 65 60 52 46 41 35 30 20 9 1 355 351 350 349 348 347 348 351 353 354 356
194 201 205 211 227 199 17 348 322 323 283 227 221 220 207 216 234 234 238 235 190 125 118 92 64 58 54 53 51 46 37 31 24 18 15 9 3 357 353 350 347 343 340 338 337 338 342 344 348
198 203 206 215 237 224 295 329 316 306 302 264 245 235 225 224 241 250 255 269 275 276 273 272 297 325 338 358 5 7 12 18 22 21 17 10 5 1 358 354 348 341 336 332 329 329 329 333 340
208 208 204 217 239 231 255 308 305 281 263 272 265 254 242 232 237 254 259 268 280 284 280 281 286 293 299 309 321 326 338 360 10 10 5 359 356 356 355 352 348 343 337 328 321 319 320 321 328
207 208 201 216 227 231 257 290 285 278 262 250 259 257 249 242 233 251 264 272 281 287 284 281 279 283 292 301 307 305 303 317 337 345 345 342 339 337 338 338 339 337 336 330 321 314 311 310 313
208 213 208 218 229 243 236 241 266 273 270 255 250 258 260 256 249 253 265 269 275 280 283 284 279 278 285 293 296 294 291 294 305 316 323 325 327 328 329 330 331 329 330 329 322 314 308 303 304
215 212 212 222 233 243 239 238 259 273 273 265 257 256 259 262 261 262 266 267 269 275 279 280 275 272 275 283 287 288 289 293 299 305 308 311 312 317 324 329 332 333 331 328 320 312 307 299 297
226 218 214 222 232 240 245 248 260 268 274 272 264 261 258 260 262 262 265 268 267 269 269 269 269 270 276 279 280 281 286 293 298 301 303 302 304 311 320 328 334 337 336 332 321 310 304 297 292
233 226 224 227 235 242 248 246 255 265 269 270 269 267 260 254 253 254 258 266 267 266 263 260 263 268 276 282 283 283 284 290 297 301 303 304 308 314 318 325 331 332 331 330 323 309 300 294 290
235 232 229 231 237 242 248 246 252 262 269 272 272 271 269 261 253 256 258 258 260 261 261 263 266 274 282 288 292 293 295 299 302 303 304 308 313 314 316 320 325 327 326 325 321 313 299 290 284
237 235 234 234 238 241 246 248 253 259 267 271 273 272 270 263 259 257 261 260 258 259 263 267 271 275 281 285 288 290 294 297 298 296 298 303 308 310 311 315 319 321 322 319 318 314 305 291 281
243 242 241 243 246 247 249 251 256 260 263 267 269 269 267 263 258 258 259 259 260 262 266 270 274 277 279 282 286 289 291 294 295 293 293 298 305 309 309 311 315 316 316 315 314 312 310 298 282
244 246 248 250 253 254 255 256 260 263 264 265 266 267 266 265 262 261 257 255 257 262 267 272 276 277 279 282 285 288 291 294 296 296 295 298 303 307 308 309 311 313 312 310 309 309 307 303 289
241 246 249 248 248 248 254 257 256 261 263 265 266 267 268 269 268 265 260 253 254 258 264 271 276 278 280 284 287 288 289 291 292 294 295 297 300 302 304 305 308 310 309 306 305 304 303 300 295
236 238 235 230 226 235 243 249 245 255 261 264 266 267 269 270 269 267 267 262 258 258 260 268 273 274 277 280 283 284 286 287 289 290 292 293 294 295 297 300 302 305 305 303 301 300 299 295 293
230 230 231 228 227 237 242 246 242 249 260 263 264 266 267 268 270 273 276 268 266 267 265 269 267 267 269 272 276 279 281 283 285 286 288 289 289 291 292 294 298 300 301 300 298 296 293 292 290
238 238 240 237 231 238 245 251 250 247 255 261 264 267 270 273 276 279 280 278 274 268 262 262 264 265 266 268 272 274 276 278 280 283 285 286 287 288 290 292 294 296 296 296 295 293 289 286 285
247 246 246 242 232 233 240 242 244 242 248 256 263 269 273 277 279 283 283 276 272 270 272 268 265 267 266 270 271 271 273 275 278 280 282 283 285 287 289 291 292 293 293 293 292 290 286 282 279
250 252 253 251 243 234 239 241 237 238 244 251 259 265 270 274 278 280 279 275 271 270 271 269 267 266 267 268 270 272 275 278 279 280 281 283 286 289 290 290 291 291 290 289 288 287 283 279 274
256 256 258 260 256 247 241 246 244 243 248 254 260 265 269 272 274 275 274 273 272 272 272 270 268 267 268 270 272 274 277 279 280 281 282 285 288 289 290 290 290 289 288 286 285 283 280 276 271
260 262 264 265 264 260 253 251 253 251 254 258 263 267 271 272 272 273 273 272 271 271 272 272 271 271 271 273 274 276 278 279 280 281 283 285 287 289 290 291 290 289 287 285 283 281 279 274 268
263 269 271 269 267 266 262 256 258 256 255 257 260 263 266 268 270 270 271 268 266 266 266 269 272 274 274 275 276 277 279 280 281 282 283 285 287 288 290 291 291 290 288 286 285 283 281 274 267
269 276 279 281 278 272 266 266 266 263 261 259 259 261 263 264 265 265 266 267 264 259 259 262 267 270 273 274 276 277 278 279 281 283 285 286 287 288 290 291 292 291 291 291 290 287 281 274 267
273 274 280 283 288 288 286 277 270 270 269 266 263 262 262 263 264 265 264 266 264 257 255 257 261 266 270 273 274 276 276 278 280 282 285 286 287 287 288 289 291 292 295 296 294 289 282 273 267
287 286 286 292 298 302 302 295 285 278 275 270 267 265 264 263 264 267 269 268 267 259 255 257 258 262 267 271 274 275 275 276 278 281 283 284 284 285 286 287 288 292 296 301 300 295 285 277 269
297 300 302 304 307 308 309 304 298 287 279 274 270 265 264 264 262 264 266 267 268 264 259 259 260 261 264 268 273 274 275 276 277 279 281 280 281 282 284 285 286 289 292 299 302 302 300 289 278
303 307 308 309 311 312 311 312 307 297 288 279 272 265 260 260 262 263 265 266 266 263 259 261 264 265 266 268 271 273 274 276 277 278 278 278 278 280 281 282 284 287 289 292 295 302 304 305 301